Location: Casa Rossa
(45.2389°N, 12.2056°E)
Time: 23:48:13
(UTC+00:00)

CZ-4C R/B - Pass Details

Date: 14 July 2020
Orbit: 464 x 636 km, 98.0° (Epoch: 14 August)

Event Time Altitude Azimuth Distance (km) Brightness Sun altitude
Exits shadow 01:11:57 46° 217° (SW) 712 3.4 -18.2°
Maximum altitude 01:12:40 55° 259° (W) 633 3.3 -18.1°
Drops below altitude 10° 01:16:19 10° 338° (NNW) 1,721 6.4 -17.8°
Sets 01:18:23 0° 343° (NNW) 2,586 7.4 -17.7°
